RH
88 90 88 88 92 93 84 84 85 85 91 94 97 95 95 91 82 82 79 90 98 99 96 80 78 81 79 87 98 99 67 49 39 35 35 33 32 37 41 40 35 39 39 42 43 38 35
91 90 89 86 88 85 92 88 88 88 93 96 99 96 98 95 90 82 86 96 97 98 92 98 84 80 78 94 98 67 47 40 36 32 36 35 35 37 46 47 43 44 44 41 38 35 38
82 89 88 88 90 92 88 89 91 91 92 99 99 96 84 96 97 99 83 80 95 93 93 76 68 74 87 100 88 62 43 40 35 30 41 36 33 38 40 47 39 35 38 39 42 36 42
86 85 89 92 91 92 89 93 88 93 90 74 96 93 80 86 90 86 75 74 73 83 75 66 62 69 99 96 68 48 40 37 34 32 31 33 30 42 42 40 40 41 46 46 41 37 40
87 87 87 88 96 87 90 94 87 94 91 68 69 73 83 76 70 78 70 67 64 61 63 57 60 66 98 81 77 61 51 53 35 33 32 28 32 45 45 57 60 52 66 45 45 43 46
86 89 89 93 94 94 94 95 94 94 85 52 62 60 71 77 66 65 70 58 59 53 58 57 61 75 77 79 76 54 45 46 44 44 44 46 58 61 62 69 60 49 62 41 43 43 44
94 92 91 92 97 97 96 96 98 94 82 41 50 53 63 60 63 61 58 56 80 75 65 75 73 80 69 61 61 52 50 45 40 47 59 56 70 76 51 42 38 36 42 38 45 46 52
95 88 94 92 98 98 99 97 99 96 68 40 43 48 57 57 54 47 55 92 95 77 81 66 71 74 68 67 64 56 48 51 51 58 52 67 69 51 46 45 43 42 46 55 52 51 55
91 89 92 94 99 98 97 98 97 97 90 46 37 44 53 54 58 59 66 83 84 83 80 69 63 69 67 56 66 64 58 57 58 66 65 73 57 43 47 50 51 61 53 58 62 63 55
90 88 88 95 91 96 99 96 96 96 77 50 42 40 46 41 52 67 74 77 78 81 87 75 66 61 56 56 54 48 50 58 55 64 60 59 46 47 50 50 52 65 59 61 66 76 71
88 87 94 94 91 96 99 98 98 76 58 51 48 43 42 43 58 67 62 65 73 63 92 63 67 46 56 61 51 55 47 53 70 62 55 67 54 64 68 62 55 69 57 62 65 75 87
89 90 90 95 95 98 97 99 96 45 42 49 54 49 50 52 61 63 62 69 65 78 90 74 59 57 58 56 56 52 57 50 52 62 59 56 47 54 59 52 55 55 64 68 73 82 93
92 89 90 76 94 96 94 100 89 50 38 47 53 54 54 56 59 56 63 71 83 91 60 60 66 62 59 60 57 55 67 71 78 75 85 72 68 57 52 64 60 62 76 94 88 90 88
91 89 92 69 60 87 88 66 42 37 38 40 50 52 51 54 58 73 74 77 91 76 76 54 58 62 66 62 57 59 64 80 63 68 89 86 79 69 60 63 56 64 79 91 94 94 92
93 83 92 77 48 55 59 54 43 35 32 35 38 51 53 49 58 74 75 96 80 71 56 65 66 73 67 59 58 60 69 74 65 66 76 89 81 63 59 60 62 81 81 72 83 88 97
88 84 73 75 42 48 52 51 43 37 31 32 43 59 57 52 64 60 89 89 77 61 62 61 66 54 67 56 58 62 71 62 70 64 61 72 76 65 66 61 66 68 73 88 97 94 87
91 87 81 74 53 48 47 47 41 40 33 37 57 71 50 54 63 77 92 79 69 57 60 66 66 59 55 55 51 58 65 64 64 70 61 62 74 69 74 85 84 83 76 88 83 86 89
94 88 86 74 67 47 48 45 41 37 40 50 68 72 50 58 81 90 81 64 59 60 58 62 61 58 57 56 60 59 62 61 66 66 82 68 78 93 78 60 66 72 81 86 92 86 92
90 89 86 84 70 45 49 46 43 37 47 55 73 89 49 54 78 87 67 64 62 64 63 62 61 53 50 56 63 52 54 56 66 69 72 70 81 92 71 63 65 77 82 80 81 86 93
89 88 86 85 80 60 40 44 42 40 44 55 78 72 77 77 76 69 64 65 67 61 62 55 57 52 56 57 51 52 46 60 63 62 64 62 81 75 48 42 68 76 77 86 81 96 89
87 87 86 85 84 75 44 40 39 36 41 52 84 78 75 86 72 62 62 63 64 68 64 57 59 58 54 58 51 51 47 50 64 56 63 70 88 87 83 77 75 74 72 83 91 74 83
82 82 86 86 84 82 68 41 39 36 37 48 68 79 83 78 66 59 68 67 64 56 61 62 62 55 55 60 53 51 53 54 58 66 65 75 76 74 82 68 71 77 69 67 68 73 76
80 81 83 83 84 85 79 52 42 38 36 56 78 72 77 83 71 71 70 55 57 56 52 53 57 61 63 59 56 60 58 54 51 70 72 71 82 80 84 68 74 63 52 50 58 65 69
80 78 81 82 85 86 84 75 46 48 45 50 72 79 70 59 77 68 53 50 53 58 57 56 59 63 53 54 58 60 74 78 75 76 64 75 76 82 92 81 60 32 39 42 52 45 53
79 77 78 79 81 81 87 82 71 47 52 50 60 70 74 57 66 51 47 53 53 54 63 61 57 56 57 53 67 56 50 57 66 80 85 74 79 91 94 94 60 45 42 47 50 35 43
85 84 80 80 80 87 91 90 80 67 50 57 57 64 73 70 54 48 52 52 64 68 67 61 57 57 57 69 68 60 45 36 40 62 70 80 76 84 92 97 64 28 32 40 33 45 42
88 86 83 80 81 85 91 94 90 80 66 56 63 61 71 81 73 55 58 51 60 68 76 68 60 66 64 82 76 76 71 44 48 51 80 88 85 86 78 79 78 55 40 37 37 29 45
100 95 90 88 86 84 89 95 96 92 83 66 61 66 64 85 80 64 51 60 70 75 69 58 61 67 85 79 80 76 70 56 57 50 74 80 94 95 76 85 92 52 48 43 37 44 43
100 100 100 94 93 86 85 90 92 97 95 82 65 73 74 74 73 63 57 54 47 49 69 72 64 74 77 89 84 84 74 78 68 65 52 60 56 70 75 72 48 50 42 41 43 44 46
Wind_Speed
21 21 22 24 25 25 26 25 25 25 25 26 30 37 28 22 20 17 16 19 21 23 30 34 20 18 17 9 6 16 10 9 9 10 6 5 5 5 5 5 4 5 3 5 4 5 4
21 21 22 22 24 25 25 26 24 24 24 23 26 32 34 26 22 19 18 22 27 23 28 35 31 27 23 17 15 16 15 19 19 22 16 10 3 5 6 4 5 2 5 6 4 3 4
21 21 21 22 22 23 23 24 24 23 22 21 23 27 31 28 24 22 21 26 28 28 27 29 31 35 25 13 12 18 23 20 18 22 10 11 6 6 3 5 2 2 4 4 5 2 2
22 21 21 21 22 22 23 22 22 22 20 18 22 24 27 23 26 23 23 25 30 27 24 19 26 27 8 16 17 26 21 21 18 18 15 11 12 8 4 4 5 5 5 3 1 1 0
23 22 21 21 21 22 22 22 21 20 20 18 18 22 24 17 22 24 25 18 21 25 26 16 23 12 7 11 8 15 15 8 12 14 13 10 7 5 4 4 4 5 3 3 1 4 2
23 23 21 21 20 19 21 20 20 19 18 17 18 22 22 15 11 16 15 28 33 12 10 11 20 10 7 4 5 12 12 8 7 4 6 8 6 4 4 4 4 4 3 2 2 3 3
23 23 22 21 20 19 18 20 19 17 16 14 15 19 20 22 19 15 4 3 8 8 26 14 8 9 2 3 5 10 10 5 3 6 5 5 7 4 3 2 3 5 4 3 1 1 2
24 24 22 22 19 19 19 18 18 18 15 12 11 12 11 16 21 21 26 6 4 4 10 14 8 4 4 3 6 15 9 5 5 5 3 6 4 1 2 4 5 5 4 2 2 2 2
22 25 24 22 20 19 18 18 18 18 17 12 7 7 3 8 12 13 22 9 6 5 6 5 4 5 4 5 4 9 7 3 7 6 6 6 2 1 3 4 5 5 3 2 1 6 2
21 23 23 22 21 20 19 19 17 17 17 11 8 5 3 8 2 7 4 6 3 2 5 9 9 4 5 2 5 5 6 3 6 4 4 6 3 3 3 4 3 3 3 2 2 4 2
19 21 22 21 21 20 19 18 17 15 14 12 9 7 5 7 1 2 5 10 5 2 7 14 7 5 6 6 2 9 8 7 5 3 5 2 2 4 6 3 3 2 2 1 1 1 4
18 21 22 21 20 20 20 20 18 14 11 11 10 7 3 3 2 3 7 7 2 7 4 8 6 6 4 5 4 4 5 5 2 5 6 3 1 2 1 2 2 1 2 3 3 3 3
19 20 22 22 21 20 20 21 20 15 9 9 9 8 7 4 5 5 4 3 6 7 3 4 3 6 7 5 3 3 4 5 3 4 4 5 3 1 2 2 4 2 5 3 5 2 5
19 20 21 23 24 21 21 21 19 14 7 6 7 7 6 6 7 6 2 6 10 5 5 2 2 3 2 3 3 2 3 4 5 3 3 4 5 3 3 4 1 3 5 4 4 1 4
19 19 20 22 24 23 23 23 20 16 10 7 8 6 4 10 5 3 5 6 6 4 2 4 1 1 2 2 3 3 2 3 1 2 4 3 0 2 1 2 2 1 2 3 0 2 3
22 19 19 22 23 23 24 26 22 17 12 7 8 4 5 12 6 4 6 4 2 1 2 1 1 3 2 2 1 2 3 2 3 1 0 0 2 3 2 1 2 1 3 2 1 2 4
21 20 20 21 23 24 24 26 27 20 10 6 4 3 7 11 4 6 4 3 2 1 1 1 1 2 2 1 3 3 1 1 2 1 4 2 2 3 2 5 7 3 3 2 1 3 2
18 20 21 21 23 24 25 26 28 22 12 4 3 3 10 8 4 2 2 3 1 0 1 2 1 2 1 3 1 2 4 4 7 7 4 4 3 3 8 3 6 3 5 6 3 4 3
16 19 21 21 22 24 26 26 27 22 17 4 2 2 5 5 3 2 1 3 2 3 2 1 2 2 0 2 1 1 1 1 8 7 5 4 2 2 6 4 1 4 5 5 3 2 7
16 18 19 21 22 22 24 26 26 23 14 4 3 3 4 4 1 5 3 1 2 2 2 2 2 1 2 2 2 2 2 2 5 4 5 3 3 6 6 4 4 5 6 7 7 5 4
14 16 18 20 21 22 22 24 25 24 12 3 3 0 2 2 4 2 2 4 2 2 2 3 2 4 3 2 1 3 1 0 1 3 3 3 4 4 7 11 8 12 13 9 14 14 8
11 13 15 18 20 21 21 22 24 25 10 7 3 2 2 0 1 3 3 5 6 2 5 3 3 2 2 4 5 2 2 3 5 2 5 2 4 2 5 9 6 10 14 16 21 20 20
9 11 13 14 17 19 20 20 22 23 12 5 3 1 3 2 1 3 2 2 3 2 3 4 4 1 3 6 4 5 6 4 4 7 6 4 2 2 5 5 8 9 10 16 7 6 16
9 9 11 12 13 15 16 17 18 19 17 5 3 3 3 2 1 3 1 1 3 3 3 2 4 4 4 0 5 3 4 7 7 7 6 4 3 2 4 6 2 6 2 5 11 10 14
11 10 9 11 10 11 13 13 13 14 13 9 4 2 3 3 2 4 2 3 3 4 3 4 5 4 1 3 2 5 3 2 1 3 7 6 3 3 2 2 9 9 1 6 7 7 9
14 11 9 11 10 10 10 10 9 9 10 6 7 3 3 3 4 2 1 1 2 2 5 4 2 1 2 2 2 1 3 3 2 2 5 5 3 3 1 2 5 5 2 2 3 6 7
16 14 13 11 10 10 9 9 8 7 7 6 2 3 1 2 4 3 3 4 3 1 3 3 2 2 2 1 2 4 4 3 3 4 5 4 4 11 10 7 9 10 4 2 1 6 5
20 19 17 14 12 11 10 9 8 7 6 6 4 2 2 2 5 6 4 4 2 2 2 2 3 1 2 1 2 3 3 4 2 3 6 7 7 5 5 6 11 7 4 7 5 1 4
24 22 21 18 16 13 12 10 9 8 8 6 3 3 3 4 5 6 10 12 8 5 4 2 3 3 4 2 2 1 3 2 4 4 2 3 7 6 11 8 5 7 7 8 3 4 6
Wind_Direction
25 20 21 20 22 25 26 25 24 22 19 19 30 30 28 41 42 44 40 50 61 76 98 100 122 67 57 70 39 30 74 95 76 97 74 117 94 107 112 108 75 77 125 74 102 81 82
22 21 22 22 19 23 25 24 26 24 25 24 27 31 37 35 48 49 44 60 68 79 104 109 101 76 72 57 26 45 66 80 88 84 73 67 102 110 86 71 74 57 88 110 74 68 54
19 19 21 21 21 21 24 22 23 23 23 22 23 23 31 30 49 54 65 75 69 72 98 100 93 84 57 39 58 32 75 70 73 83 71 54 90 77 112 91 94 70 74 59 18 358 60
18 18 16 19 21 20 22 21 22 21 22 23 21 19 19 40 46 53 78 80 72 74 77 88 86 77 72 37 42 61 72 71 78 82 73 53 76 88 62 125 44 72 49 89 259 143 250
17 17 16 15 18 19 19 22 19 18 19 23 18 15 21 54 51 58 64 70 75 76 71 99 60 78 55 23 36 34 33 28 53 71 59 57 62 78 46 77 49 17 161 180 269 211 162
18 16 14 14 14 18 16 17 17 12 18 23 20 17 32 41 70 76 61 61 65 69 24 49 29 69 7 36 352 352 21 23 54 17 27 37 49 73 35 65 173 172 125 116 176 214 202
16 16 13 11 11 12 15 11 12 10 14 29 24 28 47 54 54 58 92 24 9 24 55 74 83 87 139 311 358 11 5 2 28 43 79 27 70 105 134 72 128 104 98 123 202 325 272
18 13 11 10 8 8 8 10 4 3 10 24 35 41 57 49 47 51 66 61 51 146 65 46 63 53 32 15 25 5 13 64 43 79 53 40 73 207 112 62 74 70 99 2 326 61 269
17 13 10 7 7 7 7 7 3 357 360 13 25 45 77 15 33 33 61 66 47 20 74 31 54 39 314 21 45 349 18 16 66 56 57 103 147 323 76 51 80 40 85 55 290 327 302
17 15 11 9 13 8 7 5 3 357 359 13 14 13 12 351 12 359 67 26 360 199 91 4 9 24 351 312 38 4 25 66 45 100 82 74 338 52 63 72 78 91 3 48 30 41 266
18 15 12 12 12 7 3 3 7 359 3 13 16 1 1 358 54 37 332 337 328 205 60 311 320 293 310 96 193 360 13 37 63 13 88 264 73 38 62 40 60 170 281 252 245 66 50
15 12 11 13 13 9 5 3 4 15 8 18 23 22 5 337 4 2 333 334 12 45 33 331 332 334 21 27 27 357 19 46 96 52 45 115 173 78 146 19 94 260 30 23 59 68 12
13 13 8 12 14 11 7 2 3 9 17 19 32 35 27 350 332 324 338 37 51 70 286 299 352 345 7 26 45 48 44 35 64 73 360 353 5 43 80 58 345 58 53 356 359 353 229
13 10 7 11 14 11 8 8 7 3 357 1 8 15 8 1 347 336 104 49 71 218 208 183 284 14 57 339 353 68 65 29 8 72 102 121 346 186 183 194 20 40 120 141 208 302 276
12 11 9 9 14 15 13 10 8 1 342 320 329 338 355 356 352 344 65 50 154 211 174 169 174 170 302 254 173 139 110 152 30 50 121 112 309 66 158 21 89 81 15 205 241 231 274
8 10 10 11 14 14 13 11 10 6 348 333 329 342 349 359 8 72 66 101 83 47 62 62 190 168 140 289 126 108 177 189 145 59 238 171 99 210 185 103 21 202 107 84 55 284 278
5 8 8 8 11 14 14 12 11 9 7 4 8 32 354 357 13 54 88 84 71 26 36 165 10 62 82 85 25 45 64 307 116 99 11 355 38 298 90 205 182 145 211 180 219 230 225
1 6 7 7 9 10 13 12 9 11 13 9 81 32 347 354 49 28 92 128 296 256 312 302 356 352 335 340 4 154 184 206 169 153 170 215 141 241 228 246 196 176 182 159 135 246 236
359 0 6 7 6 9 10 12 10 8 13 3 77 214 349 351 95 14 277 125 157 156 220 257 297 261 310 268 242 228 226 201 165 161 183 178 224 343 344 357 69 201 191 173 134 105 223
351 358 1 4 6 8 8 10 10 6 9 32 84 31 336 43 39 118 138 234 167 193 192 188 247 35 346 284 240 259 257 228 198 192 156 144 215 202 200 205 146 211 196 190 160 190 212
348 352 356 359 3 6 7 8 9 8 8 61 27 160 189 346 351 51 99 170 173 254 266 195 206 199 196 262 278 239 268 88 155 203 153 161 247 214 252 262 253 255 248 207 212 218 208
341 347 351 353 356 2 6 8 11 12 16 67 87 70 13 305 325 349 317 222 187 205 168 255 228 187 202 206 198 237 193 208 210 163 174 183 269 325 275 263 259 256 248 232 228 232 243
323 332 343 347 350 355 2 8 12 18 24 73 54 73 104 262 70 75 240 263 261 180 213 195 188 170 265 250 228 220 215 233 213 168 197 173 208 11 271 330 308 284 243 221 193 197 217
297 313 327 339 343 348 356 5 12 18 32 61 55 94 63 284 142 203 243 230 261 257 280 277 167 161 231 295 293 275 232 233 212 224 183 160 153 167 272 346 325 250 261 176 199 231 217
280 287 307 319 329 336 345 356 9 15 22 46 35 109 112 291 239 301 233 225 296 295 262 249 242 213 128 10 339 332 335 312 261 214 202 182 132 293 276 250 291 300 225 168 173 273 217
274 274 287 299 313 318 328 337 356 7 11 12 36 44 111 115 252 238 272 286 209 228 322 252 334 212 96 113 84 295 264 261 267 93 49 125 149 164 354 290 265 248 216 155 107 286 201
271 274 274 276 291 299 304 316 328 344 357 354 325 5 120 148 254 184 206 190 173 163 200 295 294 304 13 140 176 182 248 231 247 198 173 142 199 221 237 262 279 256 216 90 164 247 175
273 268 268 269 269 280 282 292 304 311 325 334 303 293 300 213 272 199 219 187 161 154 178 251 30 331 47 190 190 234 200 242 243 198 181 173 164 196 194 224 268 178 74 175 219 316 186
278 276 267 266 262 257 269 270 277 289 291 285 270 237 273 235 261 250 236 247 240 207 153 217 196 191 208 108 249 333 246 240 189 264 143 232 195 184 188 219 238 215 209 229 219 204 212